Location: El Frío
(10.0713°N, 67.9111°W)
Time: 02:49:04
(UTC+00:00)

Spot 4 Rocket - Pass Details

Date: 11 December 2025
Orbit: 769 x 773 km, 98.8° (Epoch: 15 January)

Event Time Altitude Azimuth Distance (km) Brightness Sun altitude
Rises 23:07:30 0° 158° (SSE) 3,231 7.2 -13.6°
Reaches altitude 10° 23:09:51 10° 154° (SSE) 2,305 6.4 -14.1°
Maximum altitude 23:14:49 56° 77° (ENE) 907 4.0 -15.2°
Drops below altitude 10° 23:19:47 10° 359° (N) 2,306 6.3 -16.4°
Sets 23:22:07 0° 355° (N) 3,233 7.1 -16.9°
